Location: Cicognara
(44.9500°N, 10.4667°E)
Time: 06:59:19
(UTC+00:00)

EO 1 Del DPAF - Pass Details

Date: 20 June 2021
Orbit: 506 x 507 km, 98.0° (Epoch: 28 July)

Event Time Altitude Azimuth Distance (km) Brightness Sun altitude
Rises 23:35:54 0° 17° (NNE) 2,620 8.2 -21.5°
Reaches altitude 10° 23:38:02 10° 22° (NNE) 1,730 6.9 -21.5°
Maximum altitude 23:41:41 53° 101° (E) 626 3.5 -21.4°
Enters shadow 23:41:44 53° 104° (ESE) 626 3.4 -21.4°
